Tracking 32938 objects as of 13-Jan-2026
HD Live streaming from Space Station
objects crossing your sky now

CZ-6A DEB

Track CZ-6A DEB now!
10-day predictions


NORAD ID: 58429
Int'l Code: 2022-151AHX
Perigee: 811.4 km
Apogee: 934.4 km
Inclination: 98.9 °
Period: 102.3 minutes
Semi major axis: 7243 km
RCS: Unknown
Launch date: November 11, 2022
Source: People's Republic of China (PRC)
Launch site: Taiyaun Space Center, China (TSC)

Note: This is SATELLITE DEBRIS
Your satellite tracking list
Your tracking list is empty




NASA's NSSDC Master Catalog

Two Line Element Set (TLE):
1 58429U 22151AHX 26011.94920221  .00002062  00000-0  11948-2 0  9993
2 58429  98.8686   6.2981 0084910  93.4477 267.6409 14.08124852142306
Source of the keplerian elements: AFSPC